Overview Statistics Trail Chart Weather Telemetry Raw packets
 

This is the latest recevied weather packets stored in our database for station/object N0OQA. If no packets are shown the sender has not sent any weather packets the latest 10 day(s).

<< 51 52 53 54 55 56 57 >>
Time Temp. Humidity Pressure Rain* Wind** Luminosity Snow
1787935190 25° C 50% 1023.1 hPa 0 mm - - -
1787934890 25° C 53% 1023.1 hPa 0 mm - - -
1787934590 25° C 55% 1023.2 hPa 0 mm - - -
1787934289 24.44° C 57% 1023.2 hPa 0 mm - - -
1787933689 23.89° C 58% 1023.4 hPa 0 mm - - -
1787933388 23.33° C 61% 1023.3 hPa 0 mm - - -
1787932788 22.22° C 65% 1023.4 hPa 0 mm - - -
1787932187 20.56° C 69% 1023.3 hPa 0 mm - - -
1787931887 20.56° C 73% 1023.2 hPa 0 mm - - -
1787931286 20° C 79% 1023.2 hPa 0 mm - - -
1787930686 19.44° C 82% 1023.2 hPa 0 mm - - -
1787928884 17.22° C 93% 1023.3 hPa 0 mm - - -
1787927383 15.56° C 100% 1023.2 hPa 0 mm - - -
1787927082 15.56° C 100% 1023.2 hPa 0 mm - - -
1787926482 15° C 100% 1023.2 hPa 0 mm - - -
1787925881 14.44° C 100% 1023.3 hPa 0 mm - - -
1787925581 14.44° C 100% 1023.3 hPa 0 mm - - -
1787924079 13.33° C 100% 1023.5 hPa 0 mm - - -
1787923779 12.78° C 100% 1023.4 hPa 0 mm - - -
1787922269 11.67° C 100% 1023.2 hPa 0 mm - - -
1787921969 11.67° C 100% 1023.2 hPa 0 mm - - -
1787921368 11.11° C 100% 1023.3 hPa 0 mm - - -
1787921068 11.11° C 100% 1023.3 hPa 0 mm - - -
1787919865 10.56° C 100% 1022.4 hPa 0 mm - - -
1787919565 10.56° C 100% 1023 hPa 0 mm - - -

* Rain since midnight (hover to see other rain measurements)
** Current wind speed in m/s (hover to see current wind gust speed)